Regional Weather Roundup
Issued by NWS

Home | Current Version | Previous Version | Graphics & Text | Print | Product List | Glossary On
Versions: 1 2 3 4 5 6 7 8 9 10 11 12 13 14 15 16 17 18 19 20 21 22 23 24 25 26 27 28 29 30 31 32 33 34 35 36 37 38 39 40 41 42 43 44 45 46 47 48 49 50
000
ASUS43 KOAX 180510
RWRNE

WEATHER ROUNDUP FOR NEBRASKA
NATIONAL WEATHER SERVICE OMAHA NE
1100 PM CST WED JAN 17 2018

NOTES: SATELLITE DATA IS BEING USED TO AUGMENT CLOUD COVER ABOVE
       12000 FEET.
       "FAIR" INDICATES FEW OR NO CLOUDS BELOW 12,000 FEET WITH NO
       SIGNIFICANT WEATHER AND/OR OBSTRUCTIONS TO VISIBILITY.


NEZ001>004-019>022-054>056-180600-
NEBRASKA PANHANDLE

CITY           SKY/WX    TMP DP  RH WIND       PRES   REMARKS
SCOTTSBLUFF    CLEAR     23  18  81 CALM      30.17F
ALLIANCE       CLEAR     15  13  91 W3        30.15F
CHADRON        CLEAR     27  22  81 SW6       30.15R WCI  20
GORDON         FAIR      27  19  74 W7        30.13R WCI  19
KIMBALL        CLEAR     25  21  84 W12       30.19F WCI  15
SIDNEY         CLEAR     21  16  81 SW10      30.19F WCI  10
$$

NEZ057>060-069>072-079>082-180600-
SOUTHWEST NEBRASKA

CITY           SKY/WX    TMP DP  RH WIND       PRES   REMARKS
NORTH PLATTE   CLEAR     16  11  80 NW7       30.21S WCI   6
IMPERIAL       CLEAR     23  17  78 W5        30.21F WCI  17
LEXINGTON      CLEAR     19  14  80 CALM      30.22F
MCCOOK         CLEAR     21  15  78 W6        30.22F WCI  13
OGALLALA       CLEAR     21  18  88 SW5       30.20F WCI  15
$$

NEZ005>010-023>029-035>040-094-180600-
NORTH CENTRAL NEBRASKA

CITY           SKY/WX    TMP DP  RH WIND       PRES   REMARKS
VALENTINE      CLEAR     26  21  81 CALM      30.15S
AINSWORTH      CLEAR     26  22  87 W10       30.15S WCI  15
BROKEN BOW     CLEAR     22  14  71 S3        30.18F
O`NEILL        CLEAR     21  18  88 SW6       30.15F WCI  13
ORD            CLEAR     26  16  65 W5        30.19F WCI  20
THEDFORD       CLEAR     24  19  82 CALM      30.16F
$$

NEZ041-046>049-061>064-073>077-083>087-180600-
SOUTH CENTRAL NEBRASKA

CITY           SKY/WX    TMP DP  RH WIND       PRES   REMARKS
GRAND ISLAND   CLOUDY    23  15  71 SW12      30.23F WCI  12
AURORA         CLOUDY    20  13  73 SW12      30.24F WCI   8
HASTINGS       CLOUDY    21  12  68 SW8       30.24F WCI  11
HEBRON         CLOUDY    23  12  63 SW9       30.29F WCI  13
HOLDREGE       CLOUDY    21  15  75 SW6       30.23F WCI  14
KEARNEY        CLOUDY    21  13  71 SW8       30.24F WCI  11
YORK           CLOUDY    16  12  86 SW8       30.25F WCI   5
$$

NEZ011>018-030>034-042>045-180600-
NORTHEAST NEBRASKA

CITY           SKY/WX    TMP DP  RH WIND       PRES   REMARKS
NORFOLK        CLOUDY    21  14  74 W3        30.20R
ALBION         CLOUDY    24  16  73 SW6       30.20F WCI  17
BLAIR          CLOUDY    22  14  70 SW14      30.25F WCI  10
COLUMBUS       CLOUDY    24  15  68 SW8       30.25S WCI  15
FREMONT        CLOUDY    22  14  71 SW8       30.26F WCI  12
TEKAMAH        CLOUDY    18  11  74 S13       30.25F WCI   5
WAYNE          CLOUDY    20  15  78 SW7       30.19F WCI  12
$$

NEZ050>053-065>068-078-088>093-180600-
SOUTHEAST NEBRASKA

CITY           SKY/WX    TMP DP  RH WIND       PRES   REMARKS
LINCOLN        CLOUDY    21  12  68 SW9       30.29F WCI  11
OMAHA EPPLEY   CLOUDY    15   9  76 SE9       30.29F WCI   3
BEATRICE       CLOUDY    20  12  71 SW9       30.31F WCI  10
FALLS CITY     CLEAR     20  12  71 SW10      30.35F WCI   9
NEBRASKA CITY  CLOUDY    20  13  76 SW13      30.30F WCI   7
PLATTSMOUTH    CLOUDY    17  11  78 S9        30.30S WCI   6
$$

NEZ044-045-051>053-067-180600-
OMAHA AREA

CITY           SKY/WX    TMP DP  RH WIND       PRES   REMARKS
OMAHA EPPLEY   CLOUDY    15   9  76 SE9       30.29F WCI   3
BLAIR          CLOUDY    22  14  70 SW14      30.25F WCI  10
FREMONT        CLOUDY    22  14  71 SW8       30.26F WCI  12
MILLARD        CLOUDY    21  13  72 SE3       30.29F
OFFUTT AFB     CLOUDY    16   9  75 S7        30.29F WCI   6
PLATTSMOUTH    CLOUDY    17  11  78 S9        30.30S WCI   6
WAHOO          FAIR      21  13  70 S7        30.27F WCI  13
$$




USA.gov is the U.S. government's official web portal to all federal, state and local government web resources and services.